Location: Oakhurst
(33.6448°N, 111.9543°W)
Time: 14:51:41
(UTC+00:00)

UNISAT 6 - Visible Passes

Search period start: 03 August 2021 00:00
Search period end: 13 August 2021 00:00
Orbit: 605 x 689 km, 97.7° (Epoch: 02 August)

Date Brightness Start Highest point End Pass type
(mag) Time Alt. Az. Time Alt. Az. Time Alt. Az.
03 Aug ? 03:37:32 10° NNW 03:40:23 18° WNW 03:43:14 10° WSW visible
05 Aug ? 02:51:04 10° N 02:55:17 59° WNW 02:59:32 10° SSW visible
06 Aug ? 03:17:08 10° NNW 03:20:50 29° WNW 03:24:34 10° SW visible
07 Aug ? 03:43:50 10° NNW 03:46:17 15° WNW 03:48:45 10° WSW visible
09 Aug ? 02:57:04 10° N 03:01:13 49° WNW 03:05:26 10° SSW visible
10 Aug ? 03:23:14 10° NNW 03:26:44 25° WNW 03:30:17 10° SW visible
11 Aug ? 03:50:14 10° NW 03:52:11 13° WNW 03:54:08 10° W visible
12 Aug ? 02:37:13 10° N 02:41:33 85° WNW 02:45:59 10° SSW visible
